• In Belarus
  • List of Countries
  • For 7 days
  • Water Temperature
  • Satellite Maps
  • Weather Map
  • Weather Widgets
  • user-avatar
    Login

    Hourly Weather Newcastle

    Today, 21 May, Monday

    Time Temperature Precipitation Wind Pressure Humidity
    00:00 +16°C° 0 mm 2 mps 622 mmHg 36%
    01:00 +15°C° 0 mm 2 mps 622 mmHg 38%
    02:00 +15°C° 0 mm 2 mps 622 mmHg 39%
    03:00 +15°C° 0 mm 2 mps 622 mmHg 41%
    04:00 +14°C° 0 mm 2 mps 622 mmHg 42%
    05:00 +16°C° 0 mm 2 mps 622 mmHg 38%
    06:00 +17°C° 0 mm 3 mps 623 mmHg 34%
    07:00 +19°C° 0 mm 3 mps 624 mmHg 30%
    08:00 +20°C° 0 mm 4 mps 624 mmHg 26%
    09:00 +21°C° 0 mm 5 mps 624 mmHg 22%
    10:00 +22°C° 0 mm 6 mps 625 mmHg 18%
    11:00 +22°C° 0 mm 7 mps 625 mmHg 18%
    12:00 +22°C° 0 mm 7 mps 625 mmHg 17%
    13:00 +22°C° 0 mm 7 mps 625 mmHg 17%
    14:00 +22°C° 0 mm 6 mps 624 mmHg 18%
    15:00 +21°C° 0 mm 5 mps 624 mmHg 19%
    16:00 +21°C° 0 mm 4 mps 624 mmHg 20%
    17:00 +20°C° 0 mm 3 mps 623 mmHg 23%
    18:00 +19°C° 0 mm 2 mps 623 mmHg 25%
    19:00 +19°C° 0 mm 1 mps 623 mmHg 28%
    20:00 +18°C° 0.1 mm 1 mps 623 mmHg 31%
    21:00 +18°C° 0.1 mm 1 mps 623 mmHg 34%
    22:00 +16°C° 0.1 mm 1 mps 623 mmHg 37%
    23:00 +15°C° 0.3 mm 1 mps 622 mmHg 41%

    Tomorrow, 22 May, Tuesday

    Time Temperature Precipitation Wind Pressure Humidity
    00:00 +15°C° 0.3 mm 1 mps 622 mmHg 45%
    01:00 +14°C° 0.3 mm 1 mps 622 mmHg 48%
    02:00 +14°C° 0.4 mm 1 mps 622 mmHg 51%
    03:00 +13°C° 0.4 mm 1 mps 622 mmHg 54%
    04:00 +13°C° 0.4 mm 1 mps 622 mmHg 57%
    05:00 +14°C° 0.3 mm 1 mps 622 mmHg 54%
    06:00 +15°C° 0.3 mm 2 mps 623 mmHg 51%
    07:00 +15°C° 0.3 mm 2 mps 623 mmHg 48%
    08:00 +17°C° 0.1 mm 3 mps 624 mmHg 43%
    09:00 +18°C° 0.1 mm 4 mps 624 mmHg 38%
    10:00 +20°C° 0.1 mm 5 mps 625 mmHg 32%
    11:00 +20°C° 0.1 mm 5 mps 625 mmHg 31%
    12:00 +21°C° 0.1 mm 5 mps 625 mmHg 29%
    13:00 +21°C° 0.1 mm 6 mps 625 mmHg 27%
    14:00 +21°C° 0.1 mm 6 mps 625 mmHg 28%
    15:00 +21°C° 0.1 mm 6 mps 625 mmHg 28%
    16:00 +21°C° 0.1 mm 5 mps 625 mmHg 28%
    17:00 +20°C° 0 mm 5 mps 624 mmHg 32%
    18:00 +18°C° 0 mm 4 mps 624 mmHg 35%
    19:00 +17°C° 0 mm 3 mps 624 mmHg 38%
    20:00 +16°C° 0 mm 3 mps 624 mmHg 40%
    21:00 +15°C° 0 mm 2 mps 624 mmHg 42%
    22:00 +15°C° 0 mm 2 mps 624 mmHg 43%
    23:00 +14°C° 0 mm 2 mps 624 mmHg 44%

    Day after tomorrow, 23 May, Wednesday

    Time Temperature Precipitation Wind Pressure Humidity
    00:00 +14°C° 0 mm 2 mps 623 mmHg 44%
    01:00 +13°C° 0 mm 2 mps 623 mmHg 44%
    02:00 +13°C° 0 mm 2 mps 623 mmHg 45%
    03:00 +13°C° 0 mm 2 mps 623 mmHg 45%
    04:00 +12°C° 0 mm 2 mps 623 mmHg 46%
    05:00 +14°C° 0 mm 2 mps 624 mmHg 44%
    06:00 +16°C° 0 mm 2 mps 625 mmHg 41%
    07:00 +17°C° 0 mm 3 mps 626 mmHg 39%
    08:00 +19°C° 0 mm 3 mps 626 mmHg 36%
    09:00 +20°C° 0 mm 4 mps 627 mmHg 33%
    10:00 +21°C° 0 mm 5 mps 627 mmHg 31%
    11:00 +22°C° 0 mm 5 mps 627 mmHg 29%
    12:00 +23°C° 0 mm 5 mps 627 mmHg 27%
    13:00 +23°C° 0 mm 6 mps 627 mmHg 25%
    14:00 +23°C° 0 mm 5 mps 627 mmHg 25%
    15:00 +23°C° 0 mm 5 mps 627 mmHg 25%
    16:00 +23°C° 0 mm 5 mps 627 mmHg 24%
    17:00 +22°C° 0 mm 4 mps 626 mmHg 27%
    18:00 +20°C° 0 mm 4 mps 626 mmHg 30%
    19:00 +19°C° 0 mm 3 mps 626 mmHg 33%
    20:00 +18°C° 0 mm 2 mps 626 mmHg 35%
    21:00 +17°C° 0 mm 2 mps 626 mmHg 36%
    22:00 +16°C° 0 mm 2 mps 626 mmHg 38%
    23:00 +16°C° 0 mm 1 mps 626 mmHg 39%

    24 May, Thursday

    Time Temperature Precipitation Wind Pressure Humidity
    00:00 +15°C° 0 mm 1 mps 626 mmHg 39%
    01:00 +15°C° 0 mm 1 mps 626 mmHg 40%
    02:00 +14°C° 0 mm 1 mps 626 mmHg 41%
    03:00 +14°C° 0 mm 1 mps 626 mmHg 42%
    04:00 +13°C° 0 mm 1 mps 626 mmHg 43%
    05:00 +15°C° 0 mm 1 mps 627 mmHg 39%
    06:00 +18°C° 0 mm 1 mps 628 mmHg 34%
    07:00 +20°C° 0 mm 1 mps 629 mmHg 30%
    08:00 +21°C° 0 mm 2 mps 629 mmHg 27%
    09:00 +22°C° 0 mm 3 mps 630 mmHg 24%
    10:00 +25°C° 0 mm 3 mps 630 mmHg 22%
    11:00 +25°C° 0 mm 4 mps 630 mmHg 20%
    12:00 +26°C° 0 mm 5 mps 630 mmHg 18%
    13:00 +27°C° 0 mm 5 mps 630 mmHg 17%
    14:00 +27°C° 0 mm 5 mps 629 mmHg 17%
    15:00 +27°C° 0 mm 5 mps 629 mmHg 16%
    16:00 +27°C° 0 mm 5 mps 629 mmHg 16%
    17:00 +25°C° 0 mm 4 mps 628 mmHg 19%
    18:00 +22°C° 0 mm 4 mps 628 mmHg 22%
    19:00 +20°C° 0 mm 3 mps 627 mmHg 25%
    20:00 +20°C° 0 mm 3 mps 627 mmHg 26%
    21:00 +19°C° 0 mm 2 mps 627 mmHg 27%
    22:00 +18°C° 0 mm 2 mps 627 mmHg 28%
    23:00 +17°C° 0 mm 2 mps 627 mmHg 28%

    25 May, Friday

    Time Temperature Precipitation Wind Pressure Humidity
    00:00 +17°C° 0 mm 2 mps 627 mmHg 28%
    01:00 +16°C° 0 mm 2 mps 626 mmHg 28%
    02:00 +15°C° 0 mm 2 mps 626 mmHg 29%
    03:00 +15°C° 0 mm 2 mps 626 mmHg 30%
    04:00 +14°C° 0 mm 2 mps 626 mmHg 31%
    05:00 +16°C° 0 mm 2 mps 627 mmHg 28%
    06:00 +18°C° 0 mm 2 mps 628 mmHg 26%
    07:00 +20°C° 0 mm 3 mps 628 mmHg 23%
    08:00 +22°C° 0 mm 4 mps 629 mmHg 21%
    09:00 +23°C° 0 mm 5 mps 629 mmHg 19%
    10:00 +26°C° 0 mm 6 mps 629 mmHg 17%
    11:00 +26°C° 0 mm 7 mps 629 mmHg 17%
    12:00 +27°C° 0 mm 7 mps 629 mmHg 16%
    13:00 +28°C° 0 mm 8 mps 629 mmHg 16%
    14:00 +27°C° 0 mm 8 mps 628 mmHg 16%
    15:00 +27°C° 0 mm 8 mps 628 mmHg 16%
    16:00 +27°C° 0 mm 8 mps 627 mmHg 16%
    17:00 +24°C° 0 mm 7 mps 627 mmHg 19%
    18:00 +22°C° 0 mm 6 mps 626 mmHg 22%
    19:00 +20°C° 0 mm 4 mps 626 mmHg 26%
    20:00 +19°C° 0 mm 4 mps 626 mmHg 27%
    21:00 +18°C° 0 mm 3 mps 626 mmHg 29%
    22:00 +17°C° 0 mm 3 mps 625 mmHg 31%
    23:00 +16°C° 0 mm 2 mps 625 mmHg 32%

    26 May, Saturday

    Time Temperature Precipitation Wind Pressure Humidity
    00:00 +16°C° 0 mm 2 mps 625 mmHg 33%
    01:00 +15°C° 0 mm 2 mps 624 mmHg 35%
    02:00 +15°C° 0 mm 1 mps 624 mmHg 36%
    03:00 +14°C° 0 mm 1 mps 624 mmHg 37%
    04:00 +14°C° 0 mm 1 mps 624 mmHg 39%
    05:00 +16°C° 0 mm 1 mps 624 mmHg 35%
    06:00 +18°C° 0 mm 2 mps 625 mmHg 31%
    07:00 +20°C° 0 mm 2 mps 626 mmHg 28%
    08:00 +21°C° 0 mm 3 mps 626 mmHg 25%
    09:00 +23°C° 0 mm 4 mps 626 mmHg 22%
    10:00 +25°C° 0 mm 5 mps 626 mmHg 20%
    11:00 +26°C° 0 mm 6 mps 626 mmHg 18%
    12:00 +27°C° 0 mm 7 mps 625 mmHg 17%
    13:00 +28°C° 0 mm 7 mps 625 mmHg 16%
    14:00 +27°C° 0 mm 7 mps 625 mmHg 16%
    15:00 +27°C° 0 mm 7 mps 624 mmHg 16%
    16:00 +27°C° 0 mm 7 mps 624 mmHg 17%
    17:00 +24°C° 0 mm 6 mps 623 mmHg 19%
    18:00 +22°C° 0 mm 5 mps 622 mmHg 22%
    19:00 +20°C° 0 mm 5 mps 622 mmHg 25%
    20:00 +19°C° 0 mm 4 mps 622 mmHg 26%
    21:00 +18°C° 0 mm 3 mps 622 mmHg 27%
    22:00 +17°C° 0 mm 2 mps 621 mmHg 28%
    23:00 +16°C° 0.1 mm 2 mps 621 mmHg 31%
    Show more